Time,TemperatureF,DewpointF,PressureIn,WindDirection,WindDirectionDegrees,WindSpeedMPH,WindSpeedGustMPH,Humidity,HourlyPrecipIn,Conditions,Clouds,dailyrainin,SolarRadiationWatts/m^2,SoftwareType,DateUTC
2013-01-24 00:02:00,63.4,29.8,30.08,NW,317,3.0,5.0,28,0.00,,OVC090,0.00,0.00,VWS V14.01,2013-01-24 08:02:00,
2013-01-24 00:07:00,63.2,27.8,30.08,NW,313,1.0,3.0,26,0.00,,OVC090,0.00,0.00,VWS V14.01,2013-01-24 08:07:00,
2013-01-24 00:13:00,63.2,27.8,30.08,NW,311,2.0,4.0,26,0.00,,OVC090,0.00,0.00,VWS V14.01,2013-01-24 08:13:00,
2013-01-24 00:18:00,63.2,27.8,30.08,WNW,301,3.0,4.0,26,0.00,,OVC090,0.00,0.00,VWS V14.01,2013-01-24 08:18:00,
2013-01-24 00:23:00,63.2,27.8,30.08,WNW,302,2.0,4.0,26,0.00,,OVC090,0.00,0.00,VWS V14.01,2013-01-24 08:23:00,
2013-01-24 00:28:00,63.2,27.8,30.08,WNW,302,3.0,4.0,26,0.00,,OVC090,0.00,0.00,VWS V14.01,2013-01-24 08:28:00,
2013-01-24 00:33:00,63.2,27.8,30.06,NW,324,2.0,4.0,26,0.00,,OVC090,0.00,0.00,VWS V14.01,2013-01-24 08:33:00,
2013-01-24 00:38:00,63.1,27.7,30.06,NW,324,0.0,0.0,26,0.00,,OVC090,0.00,0.00,VWS V14.01,2013-01-24 08:38:00,
2013-01-24 00:43:00,63.1,27.7,30.06,NW,321,0.0,3.0,26,0.00,,OVC090,0.00,0.00,VWS V14.01,2013-01-24 08:43:00,
2013-01-24 00:49:00,62.9,28.4,30.07,NW,321,0.0,0.0,27,0.00,,OVC090,0.00,0.00,VWS V14.01,2013-01-24 08:49:00,
2013-01-24 00:54:00,62.7,28.3,30.07,NW,321,0.0,0.0,27,0.00,,OVC090,0.00,0.00,VWS V14.01,2013-01-24 08:54:00,
2013-01-24 00:59:00,62.7,29.1,30.07,NW,321,0.0,3.0,28,0.00,,OVC090,0.00,0.00,VWS V14.01,2013-01-24 08:59:00,
2013-01-24 01:04:00,62.6,28.2,30.06,NW,316,0.0,4.0,27,0.00,,OVC100,0.00,0.00,VWS V14.01,2013-01-24 09:04:00,
2013-01-24 01:09:00,62.6,28.2,30.06,NW,311,0.0,3.0,27,0.00,,OVC100,0.00,0.00,VWS V14.01,2013-01-24 09:09:00,
2013-01-24 01:14:00,62.7,28.3,30.06,NW,311,1.0,2.0,27,0.00,,OVC100,0.00,0.00,VWS V14.01,2013-01-24 09:14:00,
2013-01-24 01:19:00,62.7,28.3,30.05,NW,310,0.0,2.0,27,0.00,,OVC100,0.00,0.00,VWS V14.01,2013-01-24 09:19:00,
2013-01-24 01:24:00,62.9,29.3,30.05,NW,309,0.0,2.0,28,0.00,,OVC100,0.00,0.00,VWS V14.01,2013-01-24 09:24:00,
2013-01-24 01:29:00,63.1,29.5,30.05,NW,306,0.0,4.0,28,0.00,,OVC100,0.00,0.00,VWS V14.01,2013-01-24 09:29:00,
2013-01-24 01:34:00,63.2,29.6,30.06,WNW,300,3.0,5.0,28,0.00,,OVC100,0.00,0.00,VWS V14.01,2013-01-24 09:34:00,
2013-01-24 01:39:00,63.5,28.0,30.06,WNW,300,2.0,7.0,26,0.00,,OVC100,0.00,0.00,VWS V14.01,2013-01-24 09:39:00,
2013-01-24 01:45:00,64.0,28.5,30.06,WNW,299,1.0,4.0,26,0.00,,OVC100,0.00,0.00,VWS V14.01,2013-01-24 09:45:00,
2013-01-24 01:50:00,64.3,28.7,30.06,WNW,299,4.0,4.0,26,0.00,,OVC100,0.00,0.00,VWS V14.01,2013-01-24 09:50:00,
2013-01-24 01:55:00,64.7,30.9,30.06,WNW,295,7.0,10.0,28,0.00,,OVC100,0.00,0.00,VWS V14.01,2013-01-24 09:55:00,
2013-01-24 02:00:00,65.2,31.3,30.05,WNW,298,12.0,14.0,28,0.00,,OVC100,0.00,0.00,VWS V14.01,2013-01-24 10:00:00,
2013-01-24 02:05:00,65.8,31.8,30.05,WNW,286,13.0,15.0,28,0.00,,OVC095,0.00,0.00,VWS V14.01,2013-01-24 10:05:00,
2013-01-24 02:10:00,66.3,32.2,30.05,WNW,292,13.0,17.0,28,0.00,,OVC095,0.00,0.00,VWS V14.01,2013-01-24 10:10:00,
2013-01-24 02:15:00,66.8,32.7,30.05,WNW,298,11.0,15.0,28,0.00,,OVC095,0.00,0.00,VWS V14.01,2013-01-24 10:15:00,
2013-01-24 02:20:00,66.9,32.8,30.05,WNW,294,7.0,15.0,28,0.00,,OVC095,0.00,0.00,VWS V14.01,2013-01-24 10:20:00,
2013-01-24 02:25:00,66.9,32.8,30.05,WNW,303,8.0,14.0,28,0.00,,OVC095,0.00,0.00,VWS V14.01,2013-01-24 10:25:00,
2013-01-24 02:30:00,67.1,32.9,30.05,NW,311,12.0,13.0,28,0.00,,OVC095,0.00,0.00,VWS V14.01,2013-01-24 10:30:00,
2013-01-24 02:35:00,67.3,32.2,30.05,WNW,300,8.0,14.0,27,0.00,,OVC095,0.00,0.00,VWS V14.01,2013-01-24 10:35:00,
2013-01-24 02:41:00,67.4,32.3,30.05,NW,317,8.0,9.0,27,0.00,,OVC095,0.00,0.00,VWS V14.01,2013-01-24 10:41:00,
2013-01-24 02:46:00,67.4,32.3,30.05,NW,312,7.0,14.0,27,0.00,,OVC095,0.00,0.00,VWS V14.01,2013-01-24 10:46:00,
2013-01-24 02:51:00,67.4,32.3,30.05,NW,321,6.0,6.0,27,0.00,,OVC095,0.00,0.00,VWS V14.01,2013-01-24 10:51:00,
2013-01-24 02:56:00,67.4,32.3,30.05,NNW,335,2.0,6.0,27,0.00,,OVC095,0.00,0.00,VWS V14.01,2013-01-24 10:56:00,
2013-01-24 03:01:00,67.4,32.3,30.06,North,355,0.0,0.0,27,0.00,,OVC090,0.00,0.00,VWS V14.01,2013-01-24 11:01:00,
2013-01-24 03:06:00,67.3,32.2,30.06,NNE,30,3.0,5.0,27,0.00,,OVC090,0.00,0.00,VWS V14.01,2013-01-24 11:06:00,
2013-01-24 03:11:00,67.1,32.0,30.06,NNE,32,3.0,6.0,27,0.00,,OVC090,0.00,0.00,VWS V14.01,2013-01-24 11:11:00,
2013-01-24 03:16:00,66.9,32.8,30.06,NNE,32,2.0,2.0,28,0.00,,OVC090,0.00,0.00,VWS V14.01,2013-01-24 11:16:00,
2013-01-24 03:21:00,66.6,32.5,30.06,NNE,32,1.0,3.0,28,0.00,,OVC090,0.00,0.00,VWS V14.01,2013-01-24 11:21:00,
2013-01-24 03:27:00,66.4,32.3,30.06,NNE,32,0.0,0.0,28,0.00,,OVC090,0.00,0.00,VWS V14.01,2013-01-24 11:27:00,
2013-01-24 03:32:00,66.4,32.3,30.06,NNE,32,0.0,0.0,28,0.00,,OVC090,0.00,0.00,VWS V14.01,2013-01-24 11:32:00,
2013-01-24 03:37:00,66.3,32.2,30.06,NNE,32,0.0,1.0,28,0.00,,OVC090,0.00,0.00,VWS V14.01,2013-01-24 11:37:00,
2013-01-24 03:42:00,66.3,32.2,30.06,NNE,32,0.0,0.0,28,0.00,,OVC090,0.00,0.00,VWS V14.01,2013-01-24 11:42:00,
2013-01-24 03:47:00,66.0,30.2,30.06,NNE,32,2.0,3.0,26,0.00,,OVC090,0.00,0.00,VWS V14.01,2013-01-24 11:47:00,
2013-01-24 03:52:00,65.5,29.7,30.06,NNE,32,1.0,3.0,26,0.00,,OVC090,0.00,0.00,VWS V14.01,2013-01-24 11:52:00,
2013-01-24 03:57:00,65.0,29.3,30.06,NNE,32,2.0,3.0,26,0.00,,OVC090,0.00,0.00,VWS V14.01,2013-01-24 11:57:00,
2013-01-24 04:02:00,64.3,29.6,30.05,NNE,32,2.0,3.0,27,0.00,,OVC080,0.00,0.00,VWS V14.01,2013-01-24 12:02:00,
2013-01-24 04:07:00,64.0,30.3,30.05,NNE,32,1.0,2.0,28,0.00,,OVC080,0.00,0.00,VWS V14.01,2013-01-24 12:07:00,
2013-01-24 04:12:00,63.7,30.0,30.05,NNE,32,0.0,1.0,28,0.00,,OVC080,0.00,0.00,VWS V14.01,2013-01-24 12:12:00,
2013-01-24 04:17:00,63.7,30.0,30.05,NNE,32,1.0,2.0,28,0.00,,OVC080,0.00,0.00,VWS V14.01,2013-01-24 12:17:00,
2013-01-24 04:22:00,63.5,29.8,30.05,NNE,32,0.0,2.0,28,0.00,,OVC080,0.00,0.00,VWS V14.01,2013-01-24 12:22:00,
2013-01-24 04:27:00,63.5,29.8,30.05,NNE,32,0.0,0.0,28,0.00,,OVC080,0.00,0.00,VWS V14.01,2013-01-24 12:27:00,
2013-01-24 04:32:00,63.4,29.8,30.04,NNE,32,0.0,3.0,28,0.00,,OVC080,0.00,0.00,VWS V14.01,2013-01-24 12:32:00,
2013-01-24 04:37:00,63.2,30.4,30.04,NNE,32,0.0,1.0,29,0.00,,OVC080,0.00,0.00,VWS V14.01,2013-01-24 12:37:00,
2013-01-24 04:42:00,63.1,30.4,30.04,NNE,32,0.0,2.0,29,0.00,,OVC080,0.00,0.00,VWS V14.01,2013-01-24 12:42:00,
2013-01-24 04:47:00,62.9,30.2,30.06,NNE,32,0.0,0.0,29,0.00,,OVC080,0.00,0.00,VWS V14.01,2013-01-24 12:47:00,
2013-01-24 04:52:00,62.7,30.8,30.06,NNE,32,0.0,0.0,30,0.00,,OVC080,0.00,0.00,VWS V14.01,2013-01-24 12:52:00,
2013-01-24 04:57:00,62.6,30.8,30.06,NNE,32,2.0,2.0,30,0.00,,OVC080,0.00,0.00,VWS V14.01,2013-01-24 12:57:00,
2013-01-24 05:02:00,62.4,30.6,30.07,NNE,32,0.0,0.0,30,0.00,,OVC075,0.00,0.00,VWS V14.01,2013-01-24 13:02:00,
2013-01-24 05:07:00,62.4,30.6,30.07,NNE,32,1.0,1.0,30,0.00,,OVC075,0.00,0.00,VWS V14.01,2013-01-24 13:07:00,
2013-01-24 05:12:00,62.3,30.5,30.07,NNE,32,0.0,1.0,30,0.00,,OVC075,0.00,0.00,VWS V14.01,2013-01-24 13:12:00,
2013-01-24 05:17:00,62.1,30.3,30.07,NNE,32,0.0,0.0,30,0.00,,OVC075,0.00,0.00,VWS V14.01,2013-01-24 13:17:00,
2013-01-24 05:22:00,62.1,30.3,30.07,NNE,32,0.0,0.0,30,0.00,,OVC075,0.00,0.00,VWS V14.01,2013-01-24 13:22:00,
2013-01-24 05:27:00,62.1,30.3,30.07,NNE,32,0.0,0.0,30,0.00,,OVC075,0.00,0.00,VWS V14.01,2013-01-24 13:27:00,
2013-01-24 05:33:00,62.0,30.2,30.07,NNE,32,0.0,2.0,30,0.00,,OVC075,0.00,0.00,VWS V14.01,2013-01-24 13:33:00,
2013-01-24 05:38:00,62.0,30.2,30.07,NNE,32,0.0,0.0,30,0.00,,OVC075,0.00,0.00,VWS V14.01,2013-01-24 13:38:00,
2013-01-24 05:43:00,61.8,30.9,30.07,NNE,32,0.0,2.0,31,0.00,,OVC075,0.00,0.00,VWS V14.01,2013-01-24 13:43:00,
2013-01-24 05:48:00,61.6,30.7,30.07,NNE,32,0.0,1.0,31,0.00,,OVC075,0.00,0.00,VWS V14.01,2013-01-24 13:48:00,
2013-01-24 05:53:00,61.6,30.7,30.07,NNE,32,0.0,0.0,31,0.00,,OVC075,0.00,0.00,VWS V14.01,2013-01-24 13:53:00,
2013-01-24 05:58:00,61.6,30.7,30.07,NNE,32,0.0,0.0,31,0.00,,OVC075,0.00,0.00,VWS V14.01,2013-01-24 13:58:00,
2013-01-24 06:03:00,61.5,30.6,30.08,NNE,32,0.0,0.0,31,0.00,,OVC085,0.00,0.00,VWS V14.01,2013-01-24 14:03:00,
2013-01-24 06:08:00,61.5,31.4,30.08,NNE,32,0.0,0.0,32,0.00,,OVC085,0.00,0.00,VWS V14.01,2013-01-24 14:08:00,
2013-01-24 06:13:00,61.5,31.4,30.08,NNE,32,0.0,0.0,32,0.00,,OVC085,0.00,0.00,VWS V14.01,2013-01-24 14:13:00,
2013-01-24 06:18:00,61.3,31.2,30.08,NNE,32,0.0,0.0,32,0.00,,OVC085,0.00,0.00,VWS V14.01,2013-01-24 14:18:00,
2013-01-24 06:23:00,61.3,32.0,30.08,NNE,32,0.0,0.0,33,0.00,,OVC085,0.00,0.00,VWS V14.01,2013-01-24 14:23:00,
2013-01-24 06:28:00,61.2,31.9,30.08,NNE,32,0.0,0.0,33,0.00,,OVC085,0.00,0.00,VWS V14.01,2013-01-24 14:28:00,
2013-01-24 06:33:00,61.2,33.3,30.10,NNE,32,0.0,0.0,35,0.00,,OVC085,0.00,0.00,VWS V14.01,2013-01-24 14:33:00,
2013-01-24 06:39:00,61.0,33.2,30.10,NNE,32,0.0,0.0,35,0.00,,OVC085,0.00,0.00,VWS V14.01,2013-01-24 14:39:00,
2013-01-24 06:44:00,61.0,33.2,30.10,NNE,32,0.0,0.0,35,0.00,,OVC085,0.00,0.00,VWS V14.01,2013-01-24 14:44:00,
2013-01-24 06:49:00,60.9,32.4,30.11,NNE,32,0.0,0.0,34,0.00,,OVC085,0.00,0.00,VWS V14.01,2013-01-24 14:49:00,
2013-01-24 06:54:00,60.9,35.1,30.11,NNE,32,0.0,0.0,38,0.00,,OVC085,0.00,0.00,VWS V14.01,2013-01-24 14:54:00,
2013-01-24 06:59:00,60.7,35.0,30.11,NNE,32,0.0,0.0,38,0.00,,OVC085,0.00,0.00,VWS V14.01,2013-01-24 14:59:00,
2013-01-24 07:04:00,60.5,34.1,30.12,NNE,32,0.0,0.0,37,0.00,,-RA,0.00,5.00,VWS V14.01,2013-01-24 15:04:00,
2013-01-24 07:09:00,60.5,34.1,30.12,NNE,32,0.0,0.0,37,0.00,,-RA,0.00,7.00,VWS V14.01,2013-01-24 15:09:00,
2013-01-24 07:14:00,60.4,35.3,30.12,NNE,32,0.0,1.0,39,0.00,,-RA,0.00,11.00,VWS V14.01,2013-01-24 15:14:00,
2013-01-24 07:19:00,60.4,36.0,30.11,NNE,32,0.0,1.0,40,0.00,,-RA,0.00,12.00,VWS V14.01,2013-01-24 15:19:00,
2013-01-24 07:24:00,60.2,35.2,30.11,NNE,32,0.0,0.0,39,0.00,,-RA,0.00,16.00,VWS V14.01,2013-01-24 15:24:00,
2013-01-24 07:29:00,60.2,35.8,30.11,NNE,32,0.0,0.0,40,0.00,,-RA,0.00,21.00,VWS V14.01,2013-01-24 15:29:00,
2013-01-24 07:34:00,60.2,35.8,30.12,NNE,32,0.0,0.0,40,0.00,,-RA,0.00,23.00,VWS V14.01,2013-01-24 15:34:00,
2013-01-24 07:39:00,60.1,37.0,30.12,NNE,32,0.0,0.0,42,0.00,,-RA,0.00,25.00,VWS V14.01,2013-01-24 15:39:00,
2013-01-24 07:44:00,60.1,36.3,30.12,NNE,32,0.0,0.0,41,0.00,,-RA,0.00,30.00,VWS V14.01,2013-01-24 15:44:00,
2013-01-24 07:49:00,60.1,37.0,30.13,NNE,32,0.0,0.0,42,0.00,,-RA,0.00,37.00,VWS V14.01,2013-01-24 15:49:00,
2013-01-24 07:54:00,59.9,34.9,30.13,NNE,32,1.0,3.0,39,0.00,,-RA,0.00,39.00,VWS V14.01,2013-01-24 15:54:00,
2013-01-24 07:59:00,60.1,36.3,30.13,NNE,32,0.0,0.0,41,0.00,,-RA,0.00,33.00,VWS V14.01,2013-01-24 15:59:00,
2013-01-24 08:04:00,60.1,35.1,30.14,NNE,32,3.0,3.0,39,0.00,,OVC070,0.00,42.00,VWS V14.01,2013-01-24 16:04:00,
2013-01-24 08:09:00,60.2,35.2,30.14,NNE,32,0.0,3.0,39,0.00,,OVC070,0.00,44.00,VWS V14.01,2013-01-24 16:09:00,
2013-01-24 08:14:00,60.2,35.2,30.14,NNE,32,0.0,1.0,39,0.00,,OVC070,0.00,44.00,VWS V14.01,2013-01-24 16:14:00,
2013-01-24 08:19:00,60.4,35.3,30.15,NNE,32,2.0,3.0,39,0.00,,OVC070,0.00,42.00,VWS V14.01,2013-01-24 16:19:00,
2013-01-24 08:24:00,60.5,35.4,30.15,NNE,32,0.0,4.0,39,0.00,,OVC070,0.00,46.00,VWS V14.01,2013-01-24 16:24:00,
2013-01-24 08:29:00,60.5,34.8,30.16,NNE,32,1.0,5.0,38,0.00,,OVC070,0.00,51.00,VWS V14.01,2013-01-24 16:29:00,
2013-01-24 08:34:00,60.7,35.0,30.16,NNE,32,3.0,5.0,38,0.00,,OVC070,0.00,70.00,VWS V14.01,2013-01-24 16:34:00,
2013-01-24 08:39:00,60.9,35.1,30.16,NNE,32,4.0,6.0,38,0.00,,OVC070,0.00,70.00,VWS V14.01,2013-01-24 16:39:00,
2013-01-24 08:44:00,61.2,35.4,30.16,NNE,32,7.0,7.0,38,0.00,,OVC070,0.00,95.00,VWS V14.01,2013-01-24 16:44:00,
2013-01-24 08:49:00,61.3,35.5,30.16,NNE,32,2.0,5.0,38,0.00,,OVC070,0.00,116.00,VWS V14.01,2013-01-24 16:49:00,
2013-01-24 08:54:00,61.5,35.7,30.16,NNE,32,2.0,6.0,38,0.00,,OVC070,0.00,109.00,VWS V14.01,2013-01-24 16:54:00,
2013-01-24 08:59:00,61.6,35.8,30.17,NNE,32,2.0,4.0,38,0.00,,OVC070,0.00,142.00,VWS V14.01,2013-01-24 16:59:00,
2013-01-24 09:05:00,61.8,36.0,30.17,NNE,32,1.0,4.0,38,0.00,,OVC060,0.00,186.00,VWS V14.01,2013-01-24 17:05:00,
2013-01-24 09:10:00,62.3,36.4,30.17,NNE,32,2.0,5.0,38,0.00,,OVC060,0.00,185.00,VWS V14.01,2013-01-24 17:10:00,
2013-01-24 09:15:00,62.6,37.3,30.17,NNE,32,1.0,4.0,39,0.00,,OVC060,0.00,163.00,VWS V14.01,2013-01-24 17:15:00,
2013-01-24 09:20:00,62.7,37.4,30.17,NNE,32,1.0,4.0,39,0.00,,OVC060,0.00,158.00,VWS V14.01,2013-01-24 17:20:00,
2013-01-24 09:25:00,62.9,38.9,30.17,NNE,32,3.0,4.0,41,0.00,,OVC060,0.00,155.00,VWS V14.01,2013-01-24 17:25:00,
2013-01-24 09:30:00,63.1,37.8,30.18,NNE,32,0.0,3.0,39,0.00,,OVC060,0.00,132.00,VWS V14.01,2013-01-24 17:30:00,
2013-01-24 09:35:00,63.1,37.8,30.18,NNE,32,2.0,4.0,39,0.00,,OVC060,0.00,130.00,VWS V14.01,2013-01-24 17:35:00,
2013-01-24 09:40:00,63.1,38.4,30.18,NNE,32,2.0,4.0,40,0.00,,OVC060,0.00,167.00,VWS V14.01,2013-01-24 17:40:00,
2013-01-24 09:45:00,63.2,39.1,30.19,NNE,32,1.0,3.0,41,0.00,,OVC060,0.00,155.00,VWS V14.01,2013-01-24 17:45:00,
2013-01-24 09:50:00,63.2,38.5,30.19,NNE,32,0.0,3.0,40,0.00,,OVC060,0.00,134.00,VWS V14.01,2013-01-24 17:50:00,
2013-01-24 09:55:00,63.4,38.0,30.19,NNE,31,0.0,3.0,39,0.00,,OVC060,0.00,125.00,VWS V14.01,2013-01-24 17:55:00,
2013-01-24 10:00:00,63.4,38.7,30.19,NNE,31,0.0,2.0,40,0.00,,OVC060,0.00,105.00,VWS V14.01,2013-01-24 18:00:00,
2013-01-24 10:05:00,63.4,37.4,30.19,NNE,31,0.0,0.0,38,0.00,,OVC060,0.00,123.00,VWS V14.01,2013-01-24 18:05:00,
2013-01-24 10:11:00,63.5,39.4,30.19,NNE,31,0.0,0.0,41,0.00,,OVC060,0.00,144.00,VWS V14.01,2013-01-24 18:11:00,
2013-01-24 10:16:00,63.7,42.5,30.20,NNE,31,0.0,0.0,46,0.00,,OVC060,0.00,188.00,VWS V14.01,2013-01-24 18:16:00,
2013-01-24 10:21:00,63.9,44.9,30.20,NNE,31,0.0,0.0,50,0.00,,OVC060,0.00,236.00,VWS V14.01,2013-01-24 18:21:00,
2013-01-24 10:26:00,64.0,42.8,30.20,NNE,31,0.0,0.0,46,0.00,,OVC060,0.00,294.00,VWS V14.01,2013-01-24 18:26:00,
2013-01-24 10:31:00,64.3,42.5,30.20,WNW,294,3.0,4.0,45,0.00,,OVC060,0.00,274.00,VWS V14.01,2013-01-24 18:31:00,
2013-01-24 10:36:00,64.5,43.8,30.20,WNW,286,0.0,2.0,47,0.00,,OVC060,0.00,299.00,VWS V14.01,2013-01-24 18:36:00,
2013-01-24 10:41:00,64.3,44.8,30.20,West,281,2.0,4.0,49,0.00,,OVC060,0.00,292.00,VWS V14.01,2013-01-24 18:41:00,
2013-01-24 10:46:00,64.2,45.2,30.19,West,281,2.0,5.0,50,0.00,,OVC060,0.00,236.00,VWS V14.01,2013-01-24 18:46:00,
2013-01-24 10:51:00,64.3,44.2,30.19,West,273,3.0,7.0,48,0.00,,OVC060,0.00,272.00,VWS V14.01,2013-01-24 18:51:00,
2013-01-24 10:56:00,64.5,43.3,30.19,WNW,284,6.0,6.0,46,0.00,,OVC060,0.00,343.00,VWS V14.01,2013-01-24 18:56:00,
2013-01-24 11:01:00,65.2,44.5,30.19,WNW,286,4.0,4.0,47,0.00,,OVC060,0.00,338.00,VWS V14.01,2013-01-24 19:01:00,
2013-01-24 11:06:00,65.8,46.7,30.19,West,279,4.0,4.0,50,0.00,,OVC100,0.00,714.00,VWS V14.01,2013-01-24 19:06:00,
2013-01-24 11:11:00,66.4,45.0,30.19,West,267,5.0,6.0,46,0.00,,OVC100,0.00,561.00,VWS V14.01,2013-01-24 19:11:00,
2013-01-24 11:16:00,66.6,42.2,30.18,WNW,292,4.0,6.0,41,0.00,,OVC100,0.00,496.00,VWS V14.01,2013-01-24 19:16:00,
2013-01-24 11:21:00,66.8,43.6,30.18,West,281,3.0,6.0,43,0.00,,OVC100,0.00,378.00,VWS V14.01,2013-01-24 19:21:00,
2013-01-24 11:26:00,67.1,44.5,30.18,NW,321,0.0,4.0,44,0.00,,OVC100,0.00,661.00,VWS V14.01,2013-01-24 19:26:00,
2013-01-24 11:31:00,67.8,42.6,30.17,West,266,3.0,5.0,40,0.00,,OVC100,0.00,490.00,VWS V14.01,2013-01-24 19:31:00,
2013-01-24 11:36:00,67.9,41.4,30.17,West,265,4.0,5.0,38,0.00,,OVC100,0.00,436.00,VWS V14.01,2013-01-24 19:36:00,
2013-01-24 11:41:00,67.6,44.3,30.17,WSW,246,2.0,6.0,43,0.00,,OVC100,0.00,645.00,VWS V14.01,2013-01-24 19:41:00,
2013-01-24 11:46:00,67.8,43.3,30.16,NW,318,5.0,10.0,41,0.00,,OVC100,0.00,682.00,VWS V14.01,2013-01-24 19:46:00,
2013-01-24 11:51:00,67.9,43.4,30.16,WNW,298,7.0,12.0,41,0.00,,OVC100,0.00,671.00,VWS V14.01,2013-01-24 19:51:00,
2013-01-24 11:56:00,68.4,42.5,30.16,WSW,251,5.0,11.0,39,0.00,,OVC100,0.00,666.00,VWS V14.01,2013-01-24 19:56:00,
2013-01-24 12:01:00,68.4,41.8,30.16,West,276,5.0,10.0,38,0.00,,SCT080,0.00,577.00,VWS V14.01,2013-01-24 20:01:00,
2013-01-24 12:06:00,68.6,42.0,30.16,WSW,257,5.0,6.0,38,0.00,,SCT080,0.00,698.00,VWS V14.01,2013-01-24 20:06:00,
2013-01-24 12:12:00,69.1,41.8,30.16,WSW,257,3.0,9.0,37,0.00,,SCT080,0.00,715.00,VWS V14.01,2013-01-24 20:12:00,
2013-01-24 12:17:00,68.8,42.9,30.16,NW,307,7.0,11.0,39,0.00,,SCT080,0.00,292.00,VWS V14.01,2013-01-24 20:17:00,
2013-01-24 12:22:00,68.9,43.0,30.16,NW,306,3.0,8.0,39,0.00,,SCT080,0.00,840.00,VWS V14.01,2013-01-24 20:22:00,
2013-01-24 12:27:00,69.6,42.9,30.16,NW,317,5.0,10.0,38,0.00,,SCT080,0.00,788.00,VWS V14.01,2013-01-24 20:27:00,
2013-01-24 12:32:00,69.4,42.0,30.14,WSW,257,1.0,7.0,37,0.00,,SCT080,0.00,410.00,VWS V14.01,2013-01-24 20:32:00,
2013-01-24 12:37:00,69.1,42.5,30.14,WSW,247,5.0,5.0,38,0.00,,SCT080,0.00,773.00,VWS V14.01,2013-01-24 20:37:00,
2013-01-24 12:42:00,69.6,42.2,30.14,SW,234,0.0,6.0,37,0.00,,SCT080,0.00,765.00,VWS V14.01,2013-01-24 20:42:00,
2013-01-24 12:47:00,69.6,42.9,30.14,WNW,290,1.0,7.0,38,0.00,,SCT080,0.00,738.00,VWS V14.01,2013-01-24 20:47:00,
2013-01-24 12:52:00,69.8,43.1,30.14,WSW,257,0.0,2.0,38,0.00,,SCT080,0.00,262.00,VWS V14.01,2013-01-24 20:52:00,
2013-01-24 12:57:00,69.4,43.4,30.14,WSW,249,4.0,6.0,39,0.00,,SCT080,0.00,267.00,VWS V14.01,2013-01-24 20:57:00,
2013-01-24 13:02:00,69.3,43.3,30.13,WSW,248,2.0,5.0,39,0.00,,BKN200,0.00,260.00,VWS V14.01,2013-01-24 21:02:00,
2013-01-24 13:07:00,69.1,43.8,30.13,West,264,3.0,4.0,40,0.00,,BKN200,0.00,257.00,VWS V14.01,2013-01-24 21:07:00,
2013-01-24 13:12:00,69.1,44.4,30.13,WSW,241,2.0,5.0,41,0.00,,BKN200,0.00,279.00,VWS V14.01,2013-01-24 21:12:00,
2013-01-24 13:17:00,68.9,44.2,30.12,WSW,246,7.0,7.0,41,0.00,,BKN200,0.00,320.00,VWS V14.01,2013-01-24 21:17:00,
2013-01-24 13:22:00,68.8,44.2,30.12,SW,234,6.0,7.0,41,0.00,,BKN200,0.00,336.00,VWS V14.01,2013-01-24 21:22:00,
2013-01-24 13:27:00,68.8,44.8,30.12,SW,229,5.0,7.0,42,0.00,,BKN200,0.00,283.00,VWS V14.01,2013-01-24 21:27:00,
2013-01-24 13:32:00,68.8,44.2,30.12,West,271,1.0,3.0,41,0.00,,BKN200,0.00,295.00,VWS V14.01,2013-01-24 21:32:00,
2013-01-24 13:37:00,68.9,44.9,30.12,WSW,252,3.0,5.0,42,0.00,,BKN200,0.00,304.00,VWS V14.01,2013-01-24 21:37:00,
2013-01-24 13:42:00,68.9,44.2,30.12,WSW,238,0.0,5.0,41,0.00,,BKN200,0.00,415.00,VWS V14.01,2013-01-24 21:42:00,
2013-01-24 13:47:00,69.1,44.4,30.11,WSW,243,4.0,5.0,41,0.00,,BKN200,0.00,258.00,VWS V14.01,2013-01-24 21:47:00,
2013-01-24 13:52:00,68.9,44.2,30.11,WSW,251,2.0,6.0,41,0.00,,BKN200,0.00,274.00,VWS V14.01,2013-01-24 21:52:00,
2013-01-24 13:57:00,68.9,43.6,30.11,West,260,2.0,4.0,40,0.00,,BKN200,0.00,404.00,VWS V14.01,2013-01-24 21:57:00,
2013-01-24 14:02:00,69.1,43.8,30.11,SW,233,4.0,5.0,40,0.00,,CLR,0.00,260.00,VWS V14.01,2013-01-24 22:02:00,
2013-01-24 14:07:00,69.1,45.1,30.11,SSW,209,4.0,4.0,42,0.00,,CLR,0.00,200.00,VWS V14.01,2013-01-24 22:07:00,
2013-01-24 14:12:00,69.1,44.4,30.11,SW,217,2.0,2.0,41,0.00,,CLR,0.00,218.00,VWS V14.01,2013-01-24 22:12:00,
2013-01-24 14:17:00,68.9,43.6,30.11,SW,234,2.0,4.0,40,0.00,,CLR,0.00,183.00,VWS V14.01,2013-01-24 22:17:00,
2013-01-24 14:22:00,68.9,44.2,30.11,WSW,239,5.0,5.0,41,0.00,,CLR,0.00,197.00,VWS V14.01,2013-01-24 22:22:00,
2013-01-24 14:27:00,68.8,44.8,30.11,SW,236,1.0,3.0,42,0.00,,CLR,0.00,197.00,VWS V14.01,2013-01-24 22:27:00,
2013-01-24 14:32:00,68.9,43.6,30.11,WSW,237,0.0,3.0,40,0.00,,CLR,0.00,204.00,VWS V14.01,2013-01-24 22:32:00,
2013-01-24 14:37:00,68.9,43.6,30.11,WSW,242,3.0,4.0,40,0.00,,CLR,0.00,193.00,VWS V14.01,2013-01-24 22:37:00,
2013-01-24 14:43:00,68.9,44.2,30.11,SW,236,1.0,4.0,41,0.00,,CLR,0.00,213.00,VWS V14.01,2013-01-24 22:43:00,
2013-01-24 14:48:00,69.1,44.4,30.10,SW,236,1.0,1.0,41,0.00,,CLR,0.00,202.00,VWS V14.01,2013-01-24 22:48:00,
2013-01-24 14:53:00,69.1,43.8,30.10,SW,234,0.0,4.0,40,0.00,,CLR,0.00,183.00,VWS V14.01,2013-01-24 22:53:00,
2013-01-24 14:58:00,69.1,43.8,30.10,SW,232,1.0,3.0,40,0.00,,CLR,0.00,216.00,VWS V14.01,2013-01-24 22:58:00,
2013-01-24 15:03:00,69.1,44.4,30.10,SW,231,0.0,2.0,41,0.00,,BKN150,0.00,332.00,VWS V14.01,2013-01-24 23:03:00,
2013-01-24 15:08:00,69.3,44.0,30.10,SW,231,0.0,0.0,40,0.00,,BKN150,0.00,243.00,VWS V14.01,2013-01-24 23:08:00,
2013-01-24 15:13:00,69.6,44.9,30.10,SSW,205,0.0,5.0,41,0.00,,BKN150,0.00,253.00,VWS V14.01,2013-01-24 23:13:00,
2013-01-24 15:18:00,69.6,44.9,30.10,SSW,205,2.0,4.0,41,0.00,,BKN150,0.00,155.00,VWS V14.01,2013-01-24 23:18:00,
2013-01-24 15:23:00,69.4,43.4,30.10,SW,214,1.0,4.0,39,0.00,,BKN150,0.00,127.00,VWS V14.01,2013-01-24 23:23:00,
2013-01-24 15:28:00,69.1,44.4,30.10,SW,214,2.0,2.0,41,0.00,,BKN150,0.00,311.00,VWS V14.01,2013-01-24 23:28:00,
2013-01-24 15:33:00,69.8,44.4,30.10,SW,214,0.0,2.0,40,0.00,,BKN150,0.00,221.00,VWS V14.01,2013-01-24 23:33:00,
2013-01-24 15:38:00,70.1,44.0,30.10,SW,215,0.0,3.0,39,0.00,,BKN150,0.00,162.00,VWS V14.01,2013-01-24 23:38:00,
2013-01-24 15:43:00,69.8,43.1,30.10,SW,215,0.0,1.0,38,0.00,,BKN150,0.00,95.00,VWS V14.01,2013-01-24 23:43:00,
2013-01-24 15:48:00,69.4,43.4,30.10,SW,215,0.0,0.0,39,0.00,,BKN150,0.00,239.00,VWS V14.01,2013-01-24 23:48:00,
2013-01-24 15:53:00,69.6,42.9,30.10,SW,215,0.0,1.0,38,0.00,,BKN150,0.00,269.00,VWS V14.01,2013-01-24 23:53:00,
2013-01-24 15:58:00,70.1,43.3,30.10,SW,215,0.0,0.0,38,0.00,,BKN150,0.00,181.00,VWS V14.01,2013-01-24 23:58:00,
2013-01-24 16:03:00,69.9,41.8,30.11,SW,215,0.0,0.0,36,0.00,,BKN150,0.00,132.00,VWS V14.01,2013-01-25 00:03:00,
2013-01-24 16:08:00,69.9,41.8,30.11,SSW,205,1.0,3.0,36,0.00,,BKN150,0.00,141.00,VWS V14.01,2013-01-25 00:08:00,
2013-01-24 16:13:00,69.9,41.8,30.11,SSW,199,2.0,4.0,36,0.00,,BKN150,0.00,118.00,VWS V14.01,2013-01-25 00:13:00,
2013-01-24 16:18:00,69.9,41.8,30.11,SSW,199,3.0,3.0,36,0.00,,BKN150,0.00,105.00,VWS V14.01,2013-01-25 00:18:00,
2013-01-24 16:23:00,69.8,41.7,30.11,SSW,199,3.0,3.0,36,0.00,,BKN150,0.00,65.00,VWS V14.01,2013-01-25 00:23:00,
2013-01-24 16:28:00,69.9,41.0,30.11,SSW,199,1.0,3.0,35,0.00,,BKN150,0.00,53.00,VWS V14.01,2013-01-25 00:28:00,
2013-01-24 16:33:00,69.8,40.9,30.12,SSW,199,1.0,3.0,35,0.00,,BKN150,0.00,39.00,VWS V14.01,2013-01-25 00:33:00,
2013-01-24 16:38:00,69.8,41.7,30.12,SSW,199,1.0,2.0,36,0.00,,BKN150,0.00,35.00,VWS V14.01,2013-01-25 00:38:00,
2013-01-24 16:43:00,69.6,42.2,30.12,SSW,199,0.0,2.0,37,0.00,,BKN150,0.00,30.00,VWS V14.01,2013-01-25 00:43:00,
2013-01-24 16:48:00,69.4,42.0,30.13,SSW,199,2.0,2.0,37,0.00,,BKN150,0.00,23.00,VWS V14.01,2013-01-25 00:48:00,
2013-01-24 16:53:00,69.3,41.9,30.13,SSW,199,1.0,2.0,37,0.00,,BKN150,0.00,18.00,VWS V14.01,2013-01-25 00:53:00,
2013-01-24 16:58:00,68.9,41.6,30.13,SSW,199,0.0,2.0,37,0.00,,BKN150,0.00,9.00,VWS V14.01,2013-01-25 00:58:00,
2013-01-24 17:03:00,68.8,42.2,30.13,SSW,199,0.0,2.0,38,0.00,,BKN150,0.00,0.00,VWS V14.01,2013-01-25 01:03:00,
2013-01-24 17:08:00,68.4,41.8,30.13,SSW,199,0.0,0.0,38,0.00,,BKN150,0.00,0.00,VWS V14.01,2013-01-25 01:08:00,
2013-01-24 17:13:00,68.1,41.6,30.13,SSW,199,0.0,1.0,38,0.00,,BKN150,0.00,0.00,VWS V14.01,2013-01-25 01:13:00,
2013-01-24 17:18:00,67.8,42.0,30.13,SSW,199,1.0,2.0,39,0.00,,BKN150,0.00,0.00,VWS V14.01,2013-01-25 01:18:00,
2013-01-24 17:23:00,67.4,42.3,30.13,SSW,199,2.0,2.0,40,0.00,,BKN150,0.00,0.00,VWS V14.01,2013-01-25 01:23:00,
2013-01-24 17:28:00,67.3,42.2,30.13,SSW,199,0.0,2.0,40,0.00,,BKN150,0.00,0.00,VWS V14.01,2013-01-25 01:28:00,
2013-01-24 17:33:00,67.1,42.0,30.13,SSW,199,0.0,2.0,40,0.00,,BKN150,0.00,0.00,VWS V14.01,2013-01-25 01:33:00,
2013-01-24 17:39:00,66.8,42.4,30.13,SSW,199,0.0,0.0,41,0.00,,BKN150,0.00,0.00,VWS V14.01,2013-01-25 01:39:00,
2013-01-24 17:44:00,66.6,42.2,30.13,SSW,199,0.0,0.0,41,0.00,,BKN150,0.00,0.00,VWS V14.01,2013-01-25 01:44:00,
2013-01-24 17:49:00,66.4,42.0,30.13,SSW,199,0.0,0.0,41,0.00,,BKN150,0.00,0.00,VWS V14.01,2013-01-25 01:49:00,
2013-01-24 17:54:00,66.3,42.5,30.13,SSW,199,0.0,0.0,42,0.00,,BKN150,0.00,0.00,VWS V14.01,2013-01-25 01:54:00,
2013-01-24 17:59:00,66.1,42.4,30.13,SSW,199,0.0,0.0,42,0.00,,BKN150,0.00,0.00,VWS V14.01,2013-01-25 01:59:00,
2013-01-24 18:04:00,66.0,42.3,30.13,SSW,199,0.0,0.0,42,0.00,,SCT150,0.00,0.00,VWS V14.01,2013-01-25 02:04:00,
2013-01-24 18:09:00,65.8,41.5,30.13,SSW,199,0.0,0.0,41,0.00,,SCT150,0.00,0.00,VWS V14.01,2013-01-25 02:09:00,
2013-01-24 18:14:00,65.6,41.3,30.13,SSW,199,0.0,0.0,41,0.00,,SCT150,0.00,0.00,VWS V14.01,2013-01-25 02:14:00,
2013-01-24 18:19:00,65.3,41.6,30.15,SSW,199,0.0,0.0,42,0.00,,SCT150,0.00,0.00,VWS V14.01,2013-01-25 02:19:00,
2013-01-24 18:24:00,65.2,41.5,30.15,SSW,199,0.0,0.0,42,0.00,,SCT150,0.00,0.00,VWS V14.01,2013-01-25 02:24:00,
2013-01-24 18:29:00,65.0,42.0,30.15,SSW,199,0.0,0.0,43,0.00,,SCT150,0.00,0.00,VWS V14.01,2013-01-25 02:29:00,
2013-01-24 18:34:00,64.8,41.8,30.15,SSW,199,0.0,0.0,43,0.00,,SCT150,0.00,0.00,VWS V14.01,2013-01-25 02:34:00,
2013-01-24 18:39:00,64.7,41.7,30.15,SSW,199,0.0,0.0,43,0.00,,SCT150,0.00,0.00,VWS V14.01,2013-01-25 02:39:00,
2013-01-24 18:44:00,64.5,41.5,30.15,SSW,199,0.0,0.0,43,0.00,,SCT150,0.00,0.00,VWS V14.01,2013-01-25 02:44:00,
2013-01-24 18:49:00,64.5,41.5,30.14,SSW,199,0.0,0.0,43,0.00,,SCT150,0.00,0.00,VWS V14.01,2013-01-25 02:49:00,
2013-01-24 18:54:00,64.3,41.3,30.14,SSW,199,0.0,0.0,43,0.00,,SCT150,0.00,0.00,VWS V14.01,2013-01-25 02:54:00,
2013-01-24 18:59:00,64.2,41.3,30.14,SSW,199,0.0,0.0,43,0.00,,SCT150,0.00,0.00,VWS V14.01,2013-01-25 02:59:00,
2013-01-24 19:04:00,63.9,41.0,30.14,SSW,199,0.0,0.0,43,0.00,,SCT150,0.00,0.00,VWS V14.01,2013-01-25 03:04:00,
2013-01-24 19:09:00,63.7,41.4,30.14,SSW,199,0.0,0.0,44,0.00,,SCT150,0.00,0.00,VWS V14.01,2013-01-25 03:09:00,
2013-01-24 19:14:00,63.5,41.2,30.14,SSW,199,0.0,0.0,44,0.00,,SCT150,0.00,0.00,VWS V14.01,2013-01-25 03:14:00,
2013-01-24 19:19:00,63.4,41.7,30.14,SSW,199,0.0,0.0,45,0.00,,SCT150,0.00,0.00,VWS V14.01,2013-01-25 03:19:00,
2013-01-24 19:24:00,63.2,41.5,30.14,SSW,199,0.0,0.0,45,0.00,,SCT150,0.00,0.00,VWS V14.01,2013-01-25 03:24:00,
2013-01-24 19:29:00,62.9,41.3,30.14,SSW,199,0.0,0.0,45,0.00,,SCT150,0.00,0.00,VWS V14.01,2013-01-25 03:29:00,
2013-01-24 19:34:00,62.7,41.1,30.16,SSW,199,0.0,0.0,45,0.00,,SCT150,0.00,0.00,VWS V14.01,2013-01-25 03:34:00,
2013-01-24 19:39:00,62.7,41.1,30.16,SSW,199,0.0,0.0,45,0.00,,SCT150,0.00,0.00,VWS V14.01,2013-01-25 03:39:00,
2013-01-24 19:44:00,62.6,42.1,30.16,SSW,199,0.0,0.0,47,0.00,,SCT150,0.00,0.00,VWS V14.01,2013-01-25 03:44:00,
2013-01-24 19:49:00,62.3,41.8,30.16,SSW,199,0.0,0.0,47,0.00,,SCT150,0.00,0.00,VWS V14.01,2013-01-25 03:49:00,
2013-01-24 19:54:00,62.1,41.7,30.16,SSW,199,0.0,0.0,47,0.00,,SCT150,0.00,0.00,VWS V14.01,2013-01-25 03:54:00,
2013-01-24 19:59:00,62.0,41.6,30.16,SSW,199,2.0,3.0,47,0.00,,SCT150,0.00,0.00,VWS V14.01,2013-01-25 03:59:00,
2013-01-24 20:04:00,62.0,41.6,30.16,SSW,199,0.0,2.0,47,0.00,,CLR,0.00,0.00,VWS V14.01,2013-01-25 04:04:00,
2013-01-24 20:09:00,61.8,41.4,30.16,SSW,199,3.0,4.0,47,0.00,,CLR,0.00,0.00,VWS V14.01,2013-01-25 04:09:00,
2013-01-24 20:14:00,61.8,41.4,30.15,NNW,337,2.0,4.0,47,0.00,,CLR,0.00,0.00,VWS V14.01,2013-01-25 04:14:00,
2013-01-24 20:19:00,61.8,41.4,30.15,NNW,348,1.0,4.0,47,0.00,,CLR,0.00,0.00,VWS V14.01,2013-01-25 04:19:00,
2013-01-24 20:24:00,62.0,41.6,30.15,NNW,348,0.0,1.0,47,0.00,,CLR,0.00,0.00,VWS V14.01,2013-01-25 04:24:00,
2013-01-24 20:29:00,61.8,41.4,30.15,NNW,348,0.0,0.0,47,0.00,,CLR,0.00,0.00,VWS V14.01,2013-01-25 04:29:00,
2013-01-24 20:34:00,61.8,41.4,30.15,NNW,348,0.0,0.0,47,0.00,,CLR,0.00,0.00,VWS V14.01,2013-01-25 04:34:00,
2013-01-24 20:39:00,61.6,41.2,30.15,NNW,348,0.0,0.0,47,0.00,,CLR,0.00,0.00,VWS V14.01,2013-01-25 04:39:00,
2013-01-24 20:44:00,61.6,41.2,30.16,NNW,348,0.0,0.0,47,0.00,,CLR,0.00,0.00,VWS V14.01,2013-01-25 04:44:00,
2013-01-24 20:50:00,61.5,41.7,30.16,NNW,348,0.0,0.0,48,0.00,,CLR,0.00,0.00,VWS V14.01,2013-01-25 04:50:00,
2013-01-24 20:55:00,61.3,41.5,30.16,NNW,348,0.0,0.0,48,0.00,,CLR,0.00,0.00,VWS V14.01,2013-01-25 04:55:00,
2013-01-24 21:01:00,61.2,41.4,30.16,NNW,348,0.0,0.0,48,0.00,,SCT150,0.00,0.00,VWS V14.01,2013-01-25 05:01:00,
2013-01-24 21:02:00,61.2,41.4,30.16,NNW,348,0.0,0.0,48,0.00,,SCT150,0.00,0.00,VWS V14.01,2013-01-25 05:02:00,
2013-01-24 21:03:00,61.2,41.4,30.16,NNW,348,0.0,0.0,48,0.00,,SCT150,0.00,0.00,VWS V14.01,2013-01-25 05:03:00,
2013-01-24 21:04:00,61.2,41.4,30.16,NNW,348,0.0,0.0,48,0.00,,SCT150,0.00,0.00,VWS V14.01,2013-01-25 05:04:00,
2013-01-24 21:09:00,61.0,41.2,30.16,NNW,348,0.0,0.0,48,0.00,,SCT150,0.00,0.00,VWS V14.01,2013-01-25 05:09:00,
2013-01-24 21:14:00,61.0,41.2,30.16,NNW,348,0.0,0.0,48,0.00,,SCT150,0.00,0.00,VWS V14.01,2013-01-25 05:14:00,
2013-01-24 21:19:00,60.9,41.1,30.16,NNW,348,0.0,0.0,48,0.00,,SCT150,0.00,0.00,VWS V14.01,2013-01-25 05:19:00,
2013-01-24 21:24:00,60.9,41.6,30.16,NNW,348,0.0,0.0,49,0.00,,SCT150,0.00,0.00,VWS V14.01,2013-01-25 05:24:00,
2013-01-24 21:29:00,60.7,41.5,30.16,NNW,348,0.0,0.0,49,0.00,,SCT150,0.00,0.00,VWS V14.01,2013-01-25 05:29:00,
2013-01-24 21:34:00,60.7,42.0,30.16,NNW,348,0.0,0.0,50,0.00,,SCT150,0.00,0.00,VWS V14.01,2013-01-25 05:34:00,
2013-01-24 21:39:00,60.7,42.0,30.16,NNW,348,0.0,0.0,50,0.00,,SCT150,0.00,0.00,VWS V14.01,2013-01-25 05:39:00,
2013-01-24 21:44:00,60.5,41.8,30.16,NNW,348,0.0,0.0,50,0.00,,SCT150,0.00,0.00,VWS V14.01,2013-01-25 05:44:00,
2013-01-24 21:50:00,60.5,41.3,30.16,NNW,348,0.0,0.0,49,0.00,,SCT150,0.00,0.00,VWS V14.01,2013-01-25 05:50:00,
2013-01-24 21:55:00,60.5,41.8,30.16,NNW,348,0.0,0.0,50,0.00,,SCT150,0.00,0.00,VWS V14.01,2013-01-25 05:55:00,
2013-01-24 22:00:00,60.5,41.8,30.16,NNW,348,0.0,0.0,50,0.00,,SCT150,0.00,0.00,VWS V14.01,2013-01-25 06:00:00,
2013-01-24 22:05:00,60.5,41.8,30.16,NNW,348,0.0,0.0,50,0.00,,SCT110,0.00,0.00,VWS V14.01,2013-01-25 06:05:00,
2013-01-24 22:10:00,60.5,41.8,30.16,NNW,348,0.0,0.0,50,0.00,,SCT110,0.00,0.00,VWS V14.01,2013-01-25 06:10:00,
2013-01-24 22:15:00,60.5,41.8,30.16,NNW,348,0.0,0.0,50,0.00,,SCT110,0.00,0.00,VWS V14.01,2013-01-25 06:15:00,
2013-01-24 22:20:00,60.5,42.3,30.16,NNW,348,0.0,0.0,51,0.00,,SCT110,0.00,0.00,VWS V14.01,2013-01-25 06:20:00,
2013-01-24 22:25:00,60.4,42.7,30.16,NNW,348,0.0,0.0,52,0.00,,SCT110,0.00,0.00,VWS V14.01,2013-01-25 06:25:00,
2013-01-24 22:30:00,60.4,42.7,30.17,NNW,348,0.0,1.0,52,0.00,,SCT110,0.00,0.00,VWS V14.01,2013-01-25 06:30:00,
2013-01-24 22:35:00,60.4,42.7,30.17,NNW,348,0.0,1.0,52,0.00,,SCT110,0.00,0.00,VWS V14.01,2013-01-25 06:35:00,
2013-01-24 22:40:00,60.4,42.7,30.17,NNW,348,0.0,0.0,52,0.00,,SCT110,0.00,0.00,VWS V14.01,2013-01-25 06:40:00,
2013-01-24 22:45:00,60.4,42.7,30.16,NNW,348,0.0,0.0,52,0.00,,SCT110,0.00,0.00,VWS V14.01,2013-01-25 06:45:00,
2013-01-24 22:50:00,60.4,42.7,30.16,NNW,348,0.0,0.0,52,0.00,,SCT110,0.00,0.00,VWS V14.01,2013-01-25 06:50:00,
2013-01-24 22:55:00,60.2,42.5,30.16,NNW,348,0.0,0.0,52,0.00,,SCT110,0.00,0.00,VWS V14.01,2013-01-25 06:55:00,
2013-01-24 23:00:00,60.2,43.0,30.17,NNW,348,0.0,0.0,53,0.00,,SCT110,0.00,0.00,VWS V14.01,2013-01-25 07:00:00,
2013-01-24 23:05:00,60.2,42.5,30.17,NNW,348,0.0,0.0,52,0.00,,OVC100,0.00,0.00,VWS V14.01,2013-01-25 07:05:00,
2013-01-24 23:10:00,60.1,42.9,30.17,NNW,348,0.0,0.0,53,0.00,,OVC100,0.00,0.00,VWS V14.01,2013-01-25 07:10:00,
2013-01-24 23:15:00,60.1,43.9,30.17,NNW,348,0.0,0.0,55,0.00,,OVC100,0.00,0.00,VWS V14.01,2013-01-25 07:15:00,
2013-01-24 23:20:00,60.1,45.3,30.17,NNW,348,0.0,0.0,58,0.00,,OVC100,0.00,0.00,VWS V14.01,2013-01-25 07:20:00,
2013-01-24 23:26:00,60.1,46.2,30.17,NNW,348,0.0,0.0,60,0.00,,OVC100,0.00,0.00,VWS V14.01,2013-01-25 07:26:00,
2013-01-24 23:31:00,59.9,46.4,30.18,NNW,348,0.0,0.0,61,0.00,,OVC100,0.00,0.00,VWS V14.01,2013-01-25 07:31:00,
2013-01-24 23:36:00,59.9,47.3,30.18,NNW,348,0.0,0.0,63,0.00,,OVC100,0.00,0.00,VWS V14.01,2013-01-25 07:36:00,
2013-01-24 23:41:00,59.9,48.1,30.18,NNW,348,0.0,0.0,65,0.00,,OVC100,0.00,0.00,VWS V14.01,2013-01-25 07:41:00,
2013-01-24 23:46:00,59.8,48.0,30.18,NNW,348,0.0,0.0,65,0.00,,OVC100,0.00,0.00,VWS V14.01,2013-01-25 07:46:00,
2013-01-24 23:51:00,59.6,48.2,30.18,NNW,348,1.0,2.0,66,0.00,,OVC100,0.00,0.00,VWS V14.01,2013-01-25 07:51:00,
2013-01-24 23:56:00,59.3,48.0,30.18,NNW,347,1.0,2.0,66,0.01,,OVC100,0.01,0.00,VWS V14.01,2013-01-25 07:56:00,